STARLINK-35846, 66367

Orbit data source: Space-Track

STARLINK-35846, 66367 is a payload satellite owned by SpaceX/Seattle (US) in LEO that was launched on Thu, 06 Nov 2025 UTC via an FALCON 9 launch vehicle from the Air Force Western Test Range (AFWTR). Payload-class satellites include a variety of spacecraft equipped with specific instruments for various scientific and technological missions. These include communications satellites like Starlink; space stations such as the ISS; scientific satellites like the Hubble; Earth observation satellites from companies like Planet Labs, Umbra, and HawkEye 360; GPS; miniature CubeSats for education and research; and military/defense satellites.

Loading next visibility...
Identifier
66367, 2025-254V
Orbit
LEO
Country
Flag of USUS
Related business
Manufacturer
SpaceX/Seattle
Mission
Operational Commercial Communications
Bus & Motor
STARLINK V2MO, Unknown motor
Mass
575 kg wet, ~530 kg dry
Launch date (UTC)
2025-11-06 (7 months ago)
Launch vehicle
FALCON 9
Launch site
Air Force Western Test Range (AFWTR)
Object type
Payload
Rocket body
Debris
Shape & HBR
Box + 2 Pan, 17.7 m
Radar Cross Section
36.964 m², Large (>1 m²)

Expand to show TLE details & history
Last TLE update: 2 days ago

TLE from 2 days ago
0 STARLINK-35846
1 66367U 25254V   26170.14346197  .00013752  00000-0  47551-3 0  9990
2 66367  53.1584 120.8529 0001265  89.4700 270.6446 15.30203405 34510
Epoch: 2026-06-19T03:26Z
TLE epoch observation values (Epoch: 2026-06-19T03:26:35.114Z)
Latitude
0.00002°
Longitude
161.82994°
Altitude
476.095 km
Speed
7.629 km/s
True Right ascension
08h 03m 24s
True Declination
0° 00' 00"
Sunlit
Object was in daylight at epoch
Visualization orbit readout
Latitude
Unknown
Longitude
Unknown
Altitude
Unknown
Speed
Unknown
Apparent Right ascension
Unknown
Apparent Declination
Unknown
Sunlit
N/A
Visualization observer readout
Local Sidereal Time
08:32:45
Azimuth
Unknown
Elevation
Unknown
Doppler factor
Unknown
Orbital elements
Apogee altitude
476.329 km
Perigee altitude
474.595 km
Semi-major axis
6,853.599 km
Eccentricity
0.00013
Inclination
53.1584°
RAAN
120.8529°
Arg. of periapsis
89.47°
True anomaly
270.63011°
Mean anomaly
270.6446°
Eccentric anomaly
270.63735°
Mean motion
3.8253 °/min
Orbital period
94.11 mins
BSTAR
0.00047551
Loading maneuver chart data...
Computing Atmospheric mass density...
Loading historical data...
Loading historical data...
Loading historical data...
Loading historical data...
Loading historical data...
Loading historical data...
Loading historical data...

Documentation

Showing up to 5 results
|